Regional Weather Roundup
Issued by NWS

Home | Current Version | Previous Version | Graphics & Text | Print | Product List | Glossary Off
Versions: 1 2 3 4 5 6 7 8 9 10 11 12 13 14 15 16 17 18 19 20 21 22 23 24 25 26 27 28 29 30 31 32 33 34 35 36 37 38 39 40 41 42 43 44 45 46 47 48

000
ASUS45 KBOU 161907
RWRCO

WEATHER ROUNDUP FOR COLORADO
NATIONAL WEATHER SERVICE DENVER/BOULDER CO
100 PM MDT TUE SEP 16 2014

NOTE: "FAIR" INDICATES FEW OR NO CLOUDS BELOW 12000 FEET WITH NO
SIGNIFICANT WEATHER AND/OR OBSTRUCTIONS TO VISIBILITY.

COZ001>005-013-030-031-162000-
...NORTHWEST COLORADO...

CITY           SKY/WX    TMP DP  RH WIND       PRES   REMARKS
CRAIG          SUNNY     80  43  26 N5        30.25F
HAYDEN         SUNNY     75  30  19 W8        30.27F
MEEKER         SUNNY     80  39  23 SW5       30.26F
MOUNT WERNER   NOT AVBL
STEAMBOAT SPGS SUNNY     74  35  24 W5        30.30F
WALDEN         MOSUNNY   66  30  26 CALM      30.37F
$$

COZ006>008-011-162000-
...WEST CENTRAL VALLEYS...

CITY           SKY/WX    TMP DP  RH WIND       PRES   REMARKS
GRAND JUNCTION SUNNY     80  42  25 CALM      30.17F
MONTROSE       MOSUNNY   82  43  25 VRB5      30.24F
EAGLE          MOSUNNY   72  39  30 CALM      30.30F
RIFLE          SUNNY     76  42  29 CALM      30.22F
DELTA          MOSUNNY   85  41  21 SE6       30.19F HAZE
NUCLA          MOSUNNY   79  43  27 NE5       30.28F
$$

COZ017>023-064>068-162000-
...SOUTHWEST COLORADO...

CITY           SKY/WX    TMP DP  RH WIND       PRES   REMARKS
DURANGO        SUNNY     77  47  34 W9        30.29F
CORTEZ         SUNNY     80  51  36 SW7       30.25F
PAGOSA SPRINGS SUNNY     74  37  26 SW6       30.35F
TELLURIDE      NOT AVBL
WOLF CREEK PAS MOSUNNY   52  32  46 CALM      30.66F
$$

COZ009-010-012-014-032>034-037-058>063-162000-
...CENTRAL COLORADO...

CITY           SKY/WX    TMP DP  RH WIND       PRES   REMARKS
ASPEN          MOSUNNY   73  34  23 N12G17    30.35S
BUENA VISTA    MOSUNNY   75  31  19 CALM      30.36F
COPPER MTN     PTSUNNY   59  30  33 W17G29    30.66F
BERTHOUD PASS  PTSUNNY   50  48  93 NW15G29   30.69F
COTTONWOOD PAS CLOUDY    66  28  24 SW3       30.51F
GUNNISON       MOSUNNY   70  39  32 SW7       30.40F
KREMMLING      PTSUNNY   70  34  26 CALM      30.35F
LEADVILLE      PTSUNNY   65  28  24 NW8       30.49F
MONARCH PASS   CLOUDY    52  32  46 W10       30.77F
SALIDA         CLOUDY    80  33  18 W6        30.40F
SUNLIGHT       MOSUNNY   63  36  36 CALM      30.61F
WILKERSON PASS NOT AVBL
$$

COZ069>075-162000-
...SAN LUIS VALLEY/SANGRE DE CRISTO MOUNTAINS...

CITY           SKY/WX    TMP DP  RH WIND       PRES   REMARKS
ALAMOSA        SUNNY     73  42  32 VRB3      30.36F
LA VETA PASS   NOT AVBL
SAGUACHE       MOSUNNY   72  43  35 S8        30.37F
$$

COZ035-036-038>040-162000-
...NORTHERN COLORADO FRONT RANGE...

CITY           SKY/WX    TMP DP  RH WIND       PRES   REMARKS
DENVER INTL AP MOSUNNY   85  31  14 NW3       30.16F
DMNS CITY PARK   N/A     85  33  15 S3G9      30.15S
AURORA         MOSUNNY   83  33  17 VRB2      30.19F
FRONT RANGE AP MOSUNNY   84  32  15 NW5       30.18S
ERIE MUNI ARPT MOSUNNY   87  32  14 CALM      30.14F
BOULDER MUN AP MOSUNNY   82  36  18 E5        30.14F
CENTENNIAL     MOSUNNY   81  31  16 VRB6      30.19F
BROOMFIELD     MOSUNNY   84  34  16 E6        30.18
FORT COLLINS   MOSUNNY   82  39  21 CALM      30.13F
LONGMONT       MOSUNNY   87  44  21 NE6       30.14F
$$

COZ041-046-047-076>085-087-088-162000-
...PIKES PEAK/PALMER DIVIDE AND SOUTHERN FOOTHILLS...

CITY           SKY/WX    TMP DP  RH WIND       PRES   REMARKS
COLO. SPRINGS  MOSUNNY   83  30  14 VRB3      30.22F
A. F. ACADEMY  MOSUNNY   80  31  17 VRB3      30.24F
ELLICOTT       NOT AVBL
FALCON         MOSUNNY   81  30  15 N5G16     30.29F
FORT CARSON    MOSUNNY   85  35  16 VRB2      30.20F
LIMON          SUNNY     85  34  16 N14       30.16F
MONUMENT HILL  SUNNY     77  34  20 N7        30.28F
TRINIDAD       SUNNY     83  41  22 VRB5      30.20F
$$

COZ042>045-048>051-090-091-162000-
...NORTHEAST COLORADO...

CITY           SKY/WX    TMP DP  RH WIND       PRES   REMARKS
GREELEY ARPT   SUNNY     88  34  14 NW13G18   30.11F
AKRON          SUNNY     82  43  25 W6        30.10F
BURLINGTON     SUNNY     83  52  34 SW9       30.09F
WRAY           SUNNY     84  51  32 W7        30.04F
STERLING       SUNNY     90  46  22 NW6G16    30.04F
HOLYOKE        SUNNY     82  57  42 S7        30.03F
FORT MORGAN    SUNNY     89  35  15 W9G21     30.08F
$$

COZ086-089-092>099-162000-
...SOUTHEAST COLORADO...

CITY           SKY/WX    TMP DP  RH WIND       PRES   REMARKS
PUEBLO         SUNNY     82  49  31 CALM      30.12F
LA JUNTA       SUNNY     80  54  40 S8        30.11F
LAMAR          SUNNY     80  32  17 VRB3      30.08F
SPRINGFIELD      N/A     83  56  39 SW7G16    30.12F
$$



USA.gov is the U.S. government's official web portal to all federal, state and local government web resources and services.